Weather in Avvakumovo

Russia / Tver Oblast     56°52′51″N   36°00′11″E
temp.,
°C
wind,
m/s
gust,
m/s
humid.,
%
clouds,
%
prec.,
mm/h
press.,
hPa
HPBL,
m
26 february, fri
fri2600:00+2wsw411100100 1.3 1011349
03:00+3wsw413100100 2.1 1009415
06:00+3wsw51399100 0.4 1006473
09:00+2wsw51598100 0.4 1004588
12:00+3wsw61598100 0.8 1002831
15:00+3w71484100 1.1 10011126
18:00+2w7158492 0.0 10011097
21:00+1wnw7159096 0.1 10011040
27 february, sat
sat2700:00+1wnw6139496 0.0 1001872
03:00+1wnw6129198 0.1 1002908
06:00+1nw51297100 0.8 1002822
09:00−1n51291100 1.1 1005702
12:00−4n488345 0.0 1007532
15:00−3n488323 0.0 1010575
18:00−5n398888 0.0 1012537
21:00−5n3109289 0.0 1014533
28 february, sun
sun2800:00−5nnw289680 0.1 1015441
03:00−5nnw289680 0.2 1017423
06:00−6nnw399582 0.0 1017280
09:00−5nnw389583 0.1 1018428
12:00−3nnw368598 0.1 1019649
15:00−2nnw358497 0.1 1020678
18:00−3nnw2588100 0.0 1020314
21:00−4nnw1291100 0.1 102292
1 march, mon
mon100:00−4wnw1289100 0.0 102235
03:00−4wsw2291100 0.1 102342
06:00−6wsw229156 0.0 102421
09:00−5sw259441 0.0 1024186
12:00−1sw359262 0.0 1024300
15:00+1wsw379378 0.0 1023550
18:000wsw31094100 0.0 1021459
21:00+1w41193100 0.0 1020556
2 march, tue
tue200:00+1w41093100 0.0 1019555
03:00+1w51291100 0.0 1017599
06:00+1w51392100 0.0 1015571
09:00+1wnw41193100 0.0 1015658
12:00+1wnw51090100 0.1 1015904
15:000wnw51094100 0.2 10141013
18:00+1nw5118199 0.1 1014965
21:000nw51187100 0.1 10151018